La Paz, Mexico

2:53 PM MST on February 07, 2016 (GMT -0700)
Gen Manuel Marquez De Leon

Weather History for MMLP - October, 2013

Change the Weather History Date:

Saturday, October 12, 2013

  Actual Average Record
Temperature  
Mean Temperature 80 °F -  
Max Temperature 91 °F 87 °F 98 °F (2014)
Min Temperature 69 °F 64 °F 62 °F (2004)
Cooling Degree Days 15    
Growing Degree Days 30 (Base 50)    
Moisture  
Dew Point 68 °F    
Average Humidity 65    
Maximum Humidity 78    
Minimum Humidity 55    
Precipitation  
Precipitation 0.00 in - - ()
Sea Level Pressure  
Sea Level Pressure 29.90 in    
Wind  
Wind Speed 5 mph ()    
Max Wind Speed 14 mph    
Max Gust Speed -    
Visibility 9.7 miles    
Events      
Averages and records for this station are not official NWS values.
T = Trace of Precipitation, MM = Missing Value Source: Averaged Metar Reports

Daily Weather History Graph

Daily Weather History Graph

Search for Another Location

Airport or City:

Trip Planner

Search our weather history database for the weather conditions in past years. The results will help you decide how hot, cold, wet, or windy it might be!

Date:

Astronomy

Oct. 12, 2013 Rise Set
Actual Time 7:17 AM MDT 6:57 PM MDT
Civil Twilight 6:55 AM MDT 7:20 PM MDT
Nautical Twilight 6:28 AM MDT 7:46 PM MDT
Astronomical Twilight 6:02 AM MDT 8:12 PM MDT
Moon 2:33 PM MDT (10/12) 1:04 AM MDT (10/12)
Length of Visible Light 12h 25m
Length of Day
11h 39m
First Quarter, 59% of the Moon is Illuminated
Oct 12
First Quarter
Oct 18
Full
Oct 26
Last Quarter
Nov 3
New
Nov 9
First Quarter

Hourly Weather History & Observations

Time (MDT) Temp. Heat Index Dew Point Humidity Pressure Visibility Wind Dir Wind Speed Gust Speed Precip Events Conditions
5:40 AM 69.8 °F - 62.6 °F 78% 29.92 in 10.0 mi South 3.5 mph - N/A   Clear
5:50 AM 74 °F - 67 °F 74% 29.86 in 2 mi SW 2.2 mph - -   Partly Cloudy
6:41 AM 69.8 °F - 62.6 °F 78% 29.87 in 10.0 mi South 4.6 mph - N/A   Mostly Cloudy
7:42 AM 69.8 °F - 60.8 °F 73% 29.89 in 10.0 mi SSW 3.5 mph - N/A   Mostly Cloudy
8:41 AM 75.2 °F - 62.6 °F 65% 29.95 in 10.0 mi SSW 3.5 mph - N/A   Mostly Cloudy
9:40 AM 78.8 °F - 68.0 °F 69% 29.91 in 10.0 mi NNW 4.6 mph - N/A   Mostly Cloudy
10:43 AM 82.4 °F 86.3 °F 69.8 °F 66% 29.90 in 10.0 mi NNW 8.1 mph - N/A   Mostly Cloudy
11:43 AM 84.2 °F 87.3 °F 68.0 °F 58% 29.94 in 10.0 mi NNW 12.7 mph - N/A   Mostly Cloudy
12:42 PM 84.2 °F 87.3 °F 68.0 °F 58% 29.88 in 10.0 mi North 10.4 mph - N/A   Mostly Cloudy
1:40 PM 86.0 °F 90.4 °F 69.8 °F 58% 29.87 in 10.0 mi NNW 13.8 mph - N/A   Mostly Cloudy
2:52 PM 84.2 °F 86.6 °F 66.2 °F 55% 29.96 in 10.0 mi NNW 13.8 mph - N/A   Mostly Cloudy
3:51 PM 82.4 °F 85.4 °F 68.0 °F 62% 29.85 in 10.0 mi North 13.8 mph - N/A   Mostly Cloudy
4:51 PM 82.4 °F 85.4 °F 68.0 °F 62% 29.85 in 10.0 mi North 11.5 mph - N/A   Mostly Cloudy
5:44 PM 82.4 °F 85.4 °F 68.0 °F 62% 29.98 in 10.0 mi NW 11.5 mph - N/A   Mostly Cloudy
5:45 PM 84 °F - 71 °F 57% 29.83 in 19 mi NE 4.5 mph - -   Mostly Cloudy
6:49 PM 82.4 °F 85.4 °F 68.0 °F 62% 29.87 in 10.0 mi North 6.9 mph - N/A   Mostly Cloudy
7:40 PM 82.4 °F 86.3 °F 69.8 °F 66% 29.87 in 10.0 mi North 5.8 mph - N/A   Mostly Cloudy
8:45 PM 83 °F - 73 °F 66% 29.84 in 2 mi NW 4.5 mph - -   Mostly Cloudy
8:45 PM 82.4 °F 86.3 °F 69.8 °F 66% 30.00 in 10.0 mi NNW 5.8 mph - N/A   Mostly Cloudy
9:45 PM 80.6 °F 83.9 °F 69.8 °F 70% 29.88 in 10.0 mi Calm Calm - N/A   Mostly Cloudy
10:40 PM 80.6 °F 83.9 °F 69.8 °F 70% 29.89 in 10.0 mi Calm Calm - N/A   Mostly Cloudy